Time,TemperatureF,DewpointF,PressureIn,WindDirection,WindDirectionDegrees,WindSpeedMPH,WindSpeedGustMPH,Humidity,HourlyPrecipIn,Conditions,Clouds,dailyrainin,SoftwareType,DateUTC
2013-03-29 00:00:00,41.2,35.2,29.45,SSE,157,0.0,5.0,79,0.00,,,0.00,Weather View 32 v70,2013-03-29 04:00:00,
2013-03-29 00:05:00,40.8,34.8,29.45,SSE,157,0.0,5.0,79,0.00,,,0.00,Weather View 32 v70,2013-03-29 04:05:00,
2013-03-29 00:10:00,40.4,34.4,29.45,SSE,157,0.0,5.0,79,0.00,,,0.00,Weather View 32 v70,2013-03-29 04:10:00,
2013-03-29 00:15:00,40.3,34.6,29.45,SSE,157,0.0,5.0,80,0.00,,,0.00,Weather View 32 v70,2013-03-29 04:15:00,
2013-03-29 00:20:00,40.2,34.2,29.45,SSE,157,0.0,5.0,79,0.00,,,0.00,Weather View 32 v70,2013-03-29 04:20:00,
2013-03-29 00:25:00,40.1,34.4,29.45,SE,135,0.0,5.0,80,0.00,,,0.00,Weather View 32 v70,2013-03-29 04:25:00,
2013-03-29 00:30:00,40.1,34.7,29.45,SE,135,0.0,5.0,81,0.00,,,0.00,Weather View 32 v70,2013-03-29 04:30:00,
2013-03-29 00:35:00,39.8,34.4,29.45,SE,135,0.0,5.0,81,0.00,,,0.00,Weather View 32 v70,2013-03-29 04:35:00,
2013-03-29 00:40:00,39.6,34.9,29.45,SE,135,0.0,5.0,83,0.00,,,0.00,Weather View 32 v70,2013-03-29 04:40:00,
2013-03-29 00:45:00,39.7,35.0,29.45,ESE,112,1.0,4.0,83,0.00,,,0.00,Weather View 32 v70,2013-03-29 04:45:00,
2013-03-29 00:50:00,39.7,35.0,29.45,ESE,112,0.0,4.0,83,0.00,,,0.00,Weather View 32 v70,2013-03-29 04:50:00,
2013-03-29 00:55:00,40.1,35.3,29.45,ESE,112,3.0,6.0,83,0.00,,,0.00,Weather View 32 v70,2013-03-29 04:55:00,
2013-03-29 01:00:00,40.4,35.0,29.45,ESE,112,0.0,6.0,81,0.00,,,0.00,Weather View 32 v70,2013-03-29 05:00:00,
2013-03-29 01:05:00,40.6,35.2,29.45,SE,135,0.0,6.0,81,0.00,,,0.00,Weather View 32 v70,2013-03-29 05:05:00,
2013-03-29 01:10:00,40.6,35.2,29.45,ESE,112,0.0,6.0,81,0.00,,,0.00,Weather View 32 v70,2013-03-29 05:10:00,
2013-03-29 01:15:00,40.4,35.0,29.45,ESE,112,0.0,6.0,81,0.00,,,0.00,Weather View 32 v70,2013-03-29 05:15:00,
2013-03-29 01:20:00,40.6,35.2,29.45,ESE,112,1.0,6.0,81,0.00,,,0.00,Weather View 32 v70,2013-03-29 05:20:00,
2013-03-29 01:25:00,40.9,34.9,29.45,ESE,112,0.0,6.0,79,0.00,,,0.00,Weather View 32 v70,2013-03-29 05:25:00,
2013-03-29 01:30:00,41.1,34.8,29.46,SE,135,2.0,6.0,78,0.00,,,0.00,Weather View 32 v70,2013-03-29 05:30:00,
2013-03-29 01:35:00,40.8,34.8,29.46,SE,135,1.0,6.0,79,0.00,,,0.00,Weather View 32 v70,2013-03-29 05:35:00,
2013-03-29 01:40:00,40.8,34.8,29.45,SE,135,1.0,6.0,79,0.00,,,0.00,Weather View 32 v70,2013-03-29 05:40:00,
2013-03-29 01:45:00,40.4,34.7,29.45,SE,135,2.0,6.0,80,0.00,,,0.00,Weather View 32 v70,2013-03-29 05:45:00,
2013-03-29 01:50:00,40.2,34.8,29.45,SSE,157,0.0,6.0,81,0.00,,,0.00,Weather View 32 v70,2013-03-29 05:50:00,
2013-03-29 01:55:00,39.8,35.1,29.45,SE,135,0.0,6.0,83,0.00,,,0.00,Weather View 32 v70,2013-03-29 05:55:00,
2013-03-29 02:00:00,40.1,35.3,29.45,SE,135,0.0,6.0,83,0.00,,,0.00,Weather View 32 v70,2013-03-29 06:00:00,
2013-03-29 02:05:00,40.4,35.0,29.45,SE,135,0.0,6.0,81,0.00,,,0.00,Weather View 32 v70,2013-03-29 06:05:00,
2013-03-29 02:10:00,40.1,35.0,29.45,SE,135,2.0,6.0,82,0.00,,,0.00,Weather View 32 v70,2013-03-29 06:10:00,
2013-03-29 02:15:00,39.7,35.0,29.45,SSE,157,2.0,6.0,83,0.00,,,0.00,Weather View 32 v70,2013-03-29 06:15:00,
2013-03-29 02:20:00,39.4,35.0,29.45,SE,135,1.0,6.0,84,0.00,,,0.00,Weather View 32 v70,2013-03-29 06:20:00,
2013-03-29 02:25:00,39.4,34.7,29.44,SSE,157,0.0,6.0,83,0.00,,,0.00,Weather View 32 v70,2013-03-29 06:25:00,
2013-03-29 02:30:00,39.3,34.3,29.44,SSE,157,0.0,4.0,82,0.00,,,0.00,Weather View 32 v70,2013-03-29 06:30:00,
2013-03-29 02:35:00,39.0,34.0,29.44,SSW,202,2.0,4.0,82,0.00,,,0.00,Weather View 32 v70,2013-03-29 06:35:00,
2013-03-29 02:40:00,39.3,34.9,29.44,NNE,22,0.0,4.0,84,0.00,,,0.00,Weather View 32 v70,2013-03-29 06:40:00,
2013-03-29 02:45:00,39.1,34.7,29.44,ENE,67,0.0,4.0,84,0.00,,,0.00,Weather View 32 v70,2013-03-29 06:45:00,
2013-03-29 02:50:00,38.8,35.3,29.44,SE,135,0.0,4.0,87,0.00,,,0.00,Weather View 32 v70,2013-03-29 06:50:00,
2013-03-29 02:55:00,38.2,34.7,29.44,SSE,157,0.0,4.0,87,0.00,,,0.00,Weather View 32 v70,2013-03-29 06:55:00,
2013-03-29 03:00:00,38.0,34.5,29.44,West,270,0.0,4.0,87,0.00,,,0.00,Weather View 32 v70,2013-03-29 07:00:00,
2013-03-29 03:05:00,37.6,34.1,29.44,SSE,157,0.0,4.0,87,0.00,,,0.00,Weather View 32 v70,2013-03-29 07:05:00,
2013-03-29 03:10:00,37.1,33.9,29.44,SSE,157,0.0,4.0,88,0.00,,,0.00,Weather View 32 v70,2013-03-29 07:10:00,
2013-03-29 03:15:00,36.9,34.8,29.44,SSE,157,0.0,3.0,92,0.00,,,0.00,Weather View 32 v70,2013-03-29 07:15:00,
2013-03-29 03:20:00,36.6,34.2,29.44,SSE,157,0.0,3.0,91,0.00,,,0.00,Weather View 32 v70,2013-03-29 07:20:00,
2013-03-29 03:25:00,36.0,32.8,29.45,SSW,202,0.0,3.0,88,0.00,,,0.00,Weather View 32 v70,2013-03-29 07:25:00,
2013-03-29 03:30:00,35.4,31.9,29.45,SSW,202,0.0,3.0,87,0.00,,,0.00,Weather View 32 v70,2013-03-29 07:30:00,
2013-03-29 03:35:00,35.2,32.6,29.45,SSW,202,0.0,3.0,90,0.00,,,0.00,Weather View 32 v70,2013-03-29 07:35:00,
2013-03-29 03:40:00,34.9,33.3,29.45,SE,135,3.0,3.0,94,0.00,,,0.00,Weather View 32 v70,2013-03-29 07:40:00,
2013-03-29 03:45:00,35.3,35.3,29.45,SSW,202,0.0,4.0,100,0.00,,,0.00,Weather View 32 v70,2013-03-29 07:45:00,
2013-03-29 03:50:00,35.4,35.4,29.45,ESE,112,2.0,4.0,100,0.00,,,0.00,Weather View 32 v70,2013-03-29 07:50:00,
2013-03-29 03:55:00,35.0,34.5,29.45,SE,135,2.0,6.0,98,0.00,,,0.00,Weather View 32 v70,2013-03-29 07:55:00,
2013-03-29 04:00:00,35.7,35.7,29.45,West,270,3.0,6.0,100,0.00,,,0.00,Weather View 32 v70,2013-03-29 08:00:00,
2013-03-29 04:05:00,35.4,35.4,29.45,SE,135,4.0,6.0,100,0.00,,,0.00,Weather View 32 v70,2013-03-29 08:05:00,
2013-03-29 04:10:00,35.2,35.2,29.45,WNW,292,0.0,6.0,100,0.00,,,0.00,Weather View 32 v70,2013-03-29 08:10:00,
2013-03-29 04:15:00,34.4,34.4,29.45,WSW,247,0.0,6.0,100,0.00,,,0.00,Weather View 32 v70,2013-03-29 08:15:00,
2013-03-29 04:20:00,34.3,34.3,29.45,SSW,202,0.0,6.0,100,0.00,,,0.00,Weather View 32 v70,2013-03-29 08:20:00,
2013-03-29 04:25:00,34.4,34.4,29.45,SSE,157,0.0,6.0,100,0.00,,,0.00,Weather View 32 v70,2013-03-29 08:25:00,
2013-03-29 04:30:00,34.6,34.6,29.45,SSE,157,0.0,6.0,100,0.00,,,0.00,Weather View 32 v70,2013-03-29 08:30:00,
2013-03-29 04:35:00,35.6,35.6,29.45,NNW,337,2.0,6.0,100,0.00,,,0.00,Weather View 32 v70,2013-03-29 08:35:00,
2013-03-29 04:40:00,35.2,35.2,29.45,ENE,67,0.0,6.0,100,0.00,,,0.00,Weather View 32 v70,2013-03-29 08:40:00,
2013-03-29 04:45:00,34.7,34.7,29.45,East,90,0.0,6.0,100,0.00,,,0.00,Weather View 32 v70,2013-03-29 08:45:00,
2013-03-29 04:50:00,34.8,34.8,29.45,ESE,112,0.0,6.0,100,0.00,,,0.00,Weather View 32 v70,2013-03-29 08:50:00,
2013-03-29 04:55:00,34.9,34.9,29.45,SSE,157,0.0,6.0,100,0.00,,,0.00,Weather View 32 v70,2013-03-29 08:55:00,
2013-03-29 05:01:00,34.9,34.9,29.45,SSE,157,1.0,6.0,100,0.00,,,0.00,Weather View 32 v70,2013-03-29 09:01:00,
2013-03-29 05:06:00,35.0,35.0,29.45,SSE,157,2.0,6.0,100,0.00,,,0.00,Weather View 32 v70,2013-03-29 09:06:00,
2013-03-29 05:11:00,35.9,35.9,29.45,SSW,202,1.0,6.0,100,0.00,,,0.00,Weather View 32 v70,2013-03-29 09:11:00,
2013-03-29 05:16:00,35.5,35.0,29.45,SSW,202,1.0,6.0,98,0.00,,,0.00,Weather View 32 v70,2013-03-29 09:16:00,
2013-03-29 05:21:00,35.4,34.6,29.45,South,180,0.0,6.0,97,0.00,,,0.00,Weather View 32 v70,2013-03-29 09:21:00,
2013-03-29 05:26:00,35.7,35.7,29.45,SSE,157,1.0,6.0,100,0.00,,,0.00,Weather View 32 v70,2013-03-29 09:26:00,
2013-03-29 05:31:00,35.4,34.6,29.45,SSE,157,0.0,6.0,97,0.00,,,0.00,Weather View 32 v70,2013-03-29 09:31:00,
2013-03-29 05:36:00,35.2,34.7,29.45,SSE,157,0.0,6.0,98,0.00,,,0.00,Weather View 32 v70,2013-03-29 09:36:00,
2013-03-29 05:41:00,35.2,35.2,29.45,ENE,67,0.0,6.0,100,0.00,,,0.00,Weather View 32 v70,2013-03-29 09:41:00,
2013-03-29 05:46:00,35.4,35.4,29.45,ENE,67,0.0,3.0,100,0.00,,,0.00,Weather View 32 v70,2013-03-29 09:46:00,
2013-03-29 05:51:00,35.3,35.3,29.45,East,90,0.0,3.0,100,0.00,,,0.00,Weather View 32 v70,2013-03-29 09:51:00,
2013-03-29 05:56:00,35.1,35.1,29.45,East,90,0.0,3.0,100,0.00,,,0.00,Weather View 32 v70,2013-03-29 09:56:00,
2013-03-29 06:01:00,34.9,34.9,29.45,South,180,0.0,3.0,100,0.00,,,0.00,Weather View 32 v70,2013-03-29 10:01:00,
2013-03-29 06:06:00,35.0,35.0,29.45,SSE,157,0.0,3.0,100,0.00,,,0.00,Weather View 32 v70,2013-03-29 10:06:00,
2013-03-29 06:11:00,35.0,34.5,29.45,SSE,157,2.0,3.0,98,0.00,,,0.00,Weather View 32 v70,2013-03-29 10:11:00,
2013-03-29 06:16:00,36.0,36.0,29.45,SE,135,1.0,5.0,100,0.00,,,0.00,Weather View 32 v70,2013-03-29 10:16:00,
2013-03-29 06:21:00,35.8,35.8,29.45,South,180,0.0,5.0,100,0.00,,,0.00,Weather View 32 v70,2013-03-29 10:21:00,
2013-03-29 06:26:00,35.6,35.6,29.45,West,270,2.0,5.0,100,0.00,,,0.00,Weather View 32 v70,2013-03-29 10:26:00,
2013-03-29 06:31:00,35.4,35.4,29.45,SSW,202,0.0,5.0,100,0.00,,,0.00,Weather View 32 v70,2013-03-29 10:31:00,
2013-03-29 06:36:00,35.4,35.4,29.46,ESE,112,0.0,5.0,100,0.00,,,0.00,Weather View 32 v70,2013-03-29 10:36:00,
2013-03-29 06:42:00,35.3,35.3,29.46,SSW,202,0.0,5.0,100,0.00,,,0.00,Weather View 32 v70,2013-03-29 10:42:00,
2013-03-29 06:47:00,35.1,35.1,29.46,SSW,202,0.0,5.0,100,0.00,,,0.00,Weather View 32 v70,2013-03-29 10:47:00,
2013-03-29 06:52:00,35.1,35.1,29.46,SSW,202,0.0,5.0,100,0.00,,,0.00,Weather View 32 v70,2013-03-29 10:52:00,
2013-03-29 06:57:00,34.9,34.9,29.46,SSW,202,0.0,5.0,100,0.00,,,0.00,Weather View 32 v70,2013-03-29 10:57:00,
2013-03-29 07:02:00,35.0,35.0,29.46,SSW,202,0.0,5.0,100,0.00,,,0.00,Weather View 32 v70,2013-03-29 11:02:00,
2013-03-29 07:07:00,34.8,34.8,29.47,SSW,202,0.0,5.0,100,0.00,,,0.00,Weather View 32 v70,2013-03-29 11:07:00,
2013-03-29 07:12:00,34.9,34.9,29.46,SSE,157,0.0,5.0,100,0.00,,,0.00,Weather View 32 v70,2013-03-29 11:12:00,
2013-03-29 07:17:00,35.7,35.7,29.46,SE,135,0.0,4.0,100,0.00,,,0.00,Weather View 32 v70,2013-03-29 11:17:00,
2013-03-29 07:22:00,36.1,36.1,29.46,ESE,112,0.0,4.0,100,0.00,,,0.00,Weather View 32 v70,2013-03-29 11:22:00,
2013-03-29 07:27:00,36.2,36.2,29.46,SSW,202,1.0,4.0,100,0.00,,,0.00,Weather View 32 v70,2013-03-29 11:27:00,
2013-03-29 07:32:00,36.4,36.4,29.46,WSW,247,0.0,4.0,100,0.00,,,0.00,Weather View 32 v70,2013-03-29 11:32:00,
2013-03-29 07:37:00,36.8,36.8,29.47,North,360,0.0,4.0,100,0.00,,,0.00,Weather View 32 v70,2013-03-29 11:37:00,
2013-03-29 07:42:00,37.2,37.2,29.46,East,90,1.0,4.0,100,0.00,,,0.00,Weather View 32 v70,2013-03-29 11:42:00,
2013-03-29 07:47:00,37.4,37.1,29.46,ESE,112,4.0,5.0,99,0.00,,,0.00,Weather View 32 v70,2013-03-29 11:47:00,
2013-03-29 07:52:00,37.7,36.9,29.46,WSW,247,0.0,5.0,97,0.00,,,0.00,Weather View 32 v70,2013-03-29 11:52:00,
2013-03-29 07:57:00,37.8,37.0,29.46,WNW,292,0.0,5.0,97,0.00,,,0.00,Weather View 32 v70,2013-03-29 11:57:00,
2013-03-29 08:02:00,37.6,36.6,29.46,NW,315,0.0,5.0,96,0.00,,,0.00,Weather View 32 v70,2013-03-29 12:02:00,
2013-03-29 08:07:00,37.4,36.6,29.46,NW,315,0.0,5.0,97,0.00,,,0.00,Weather View 32 v70,2013-03-29 12:07:00,
2013-03-29 08:12:00,37.4,36.6,29.46,NW,315,0.0,5.0,97,0.00,,,0.00,Weather View 32 v70,2013-03-29 12:12:00,
2013-03-29 08:17:00,37.4,36.6,29.46,NW,315,0.0,5.0,97,0.00,,,0.00,Weather View 32 v70,2013-03-29 12:17:00,
2013-03-29 08:22:00,37.5,37.0,29.46,NW,315,0.0,5.0,98,0.00,,,0.00,Weather View 32 v70,2013-03-29 12:22:00,
2013-03-29 08:27:00,37.8,37.3,29.46,NW,315,0.0,5.0,98,0.00,,,0.00,Weather View 32 v70,2013-03-29 12:27:00,
2013-03-29 08:32:00,38.2,37.9,29.46,NNE,22,0.0,5.0,99,0.00,,,0.00,Weather View 32 v70,2013-03-29 12:32:00,
2013-03-29 08:38:00,38.7,38.4,29.46,NE,45,0.0,5.0,99,0.00,,,0.00,Weather View 32 v70,2013-03-29 12:38:00,
2013-03-29 08:43:00,38.9,38.4,29.46,NE,45,0.0,5.0,98,0.00,,,0.00,Weather View 32 v70,2013-03-29 12:43:00,
2013-03-29 08:48:00,39.5,38.7,29.46,NE,45,0.0,4.0,97,0.00,,,0.00,Weather View 32 v70,2013-03-29 12:48:00,
2013-03-29 08:53:00,40.1,39.3,29.46,NE,45,0.0,4.0,97,0.00,,,0.00,Weather View 32 v70,2013-03-29 12:53:00,
2013-03-29 08:58:00,40.1,38.2,29.46,West,270,0.0,6.0,93,0.00,,,0.00,Weather View 32 v70,2013-03-29 12:58:00,
2013-03-29 09:03:00,40.3,38.7,29.46,NNW,337,0.0,6.0,94,0.00,,,0.00,Weather View 32 v70,2013-03-29 13:03:00,
2013-03-29 09:08:00,41.0,39.4,29.46,WNW,292,0.0,6.0,94,0.00,,,0.00,Weather View 32 v70,2013-03-29 13:08:00,
2013-03-29 09:13:00,41.1,39.0,29.47,NNW,337,0.0,6.0,92,0.00,,,0.00,Weather View 32 v70,2013-03-29 13:13:00,
2013-03-29 09:18:00,41.4,39.0,29.47,NW,315,0.0,6.0,91,0.00,,,0.00,Weather View 32 v70,2013-03-29 13:18:00,
2013-03-29 09:23:00,41.4,38.4,29.47,NW,315,0.0,6.0,89,0.00,,,0.00,Weather View 32 v70,2013-03-29 13:23:00,
2013-03-29 09:28:00,41.7,38.4,29.47,NNE,22,0.0,6.0,88,0.00,,,0.00,Weather View 32 v70,2013-03-29 13:28:00,
2013-03-29 09:33:00,41.9,38.6,29.46,NNE,22,0.0,6.0,88,0.00,,,0.00,Weather View 32 v70,2013-03-29 13:33:00,
2013-03-29 09:38:00,42.3,38.7,29.46,NNE,22,0.0,6.0,87,0.00,,,0.00,Weather View 32 v70,2013-03-29 13:38:00,
2013-03-29 09:43:00,42.9,38.7,29.46,North,360,0.0,6.0,85,0.00,,,0.00,Weather View 32 v70,2013-03-29 13:43:00,
2013-03-29 09:48:00,43.4,38.6,29.46,North,360,0.0,6.0,83,0.00,,,0.00,Weather View 32 v70,2013-03-29 13:48:00,
2013-03-29 09:53:00,43.4,36.7,29.46,ENE,67,3.0,6.0,77,0.00,,,0.00,Weather View 32 v70,2013-03-29 13:53:00,
2013-03-29 09:58:00,43.1,36.4,29.46,East,90,3.0,6.0,77,0.00,,,0.00,Weather View 32 v70,2013-03-29 13:58:00,
2013-03-29 10:03:00,42.9,36.2,29.46,ENE,67,0.0,6.0,77,0.00,,,0.00,Weather View 32 v70,2013-03-29 14:03:00,
2013-03-29 10:08:00,42.9,36.5,29.46,ESE,112,4.0,6.0,78,0.00,,,0.00,Weather View 32 v70,2013-03-29 14:08:00,
2013-03-29 10:13:00,43.0,36.9,29.46,ESE,112,4.0,7.0,79,0.00,,,0.00,Weather View 32 v70,2013-03-29 14:13:00,
2013-03-29 10:18:00,43.6,37.2,29.46,ESE,112,3.0,7.0,78,0.00,,,0.00,Weather View 32 v70,2013-03-29 14:18:00,
2013-03-29 10:23:00,45.0,37.5,29.46,ESE,112,7.0,7.0,75,0.00,,,0.00,Weather View 32 v70,2013-03-29 14:23:00,
2013-03-29 10:28:00,45.8,36.6,29.46,NE,45,0.0,7.0,70,0.00,,,0.00,Weather View 32 v70,2013-03-29 14:28:00,
2013-03-29 10:33:00,47.3,36.9,29.46,ENE,67,1.0,7.0,67,0.00,,,0.00,Weather View 32 v70,2013-03-29 14:33:00,
2013-03-29 10:38:00,48.3,37.1,29.46,North,360,2.0,7.0,65,0.00,,,0.00,Weather View 32 v70,2013-03-29 14:38:00,
2013-03-29 10:43:00,48.8,36.3,29.47,WNW,292,2.0,7.0,62,0.00,,,0.00,Weather View 32 v70,2013-03-29 14:43:00,
2013-03-29 10:48:00,48.8,37.1,29.47,WNW,292,0.0,7.0,64,0.00,,,0.00,Weather View 32 v70,2013-03-29 14:48:00,
2013-03-29 10:53:00,49.0,35.7,29.47,WNW,292,3.0,7.0,60,0.00,,,0.00,Weather View 32 v70,2013-03-29 14:53:00,
2013-03-29 10:58:00,49.2,35.9,29.47,WNW,292,0.0,7.0,60,0.00,,,0.00,Weather View 32 v70,2013-03-29 14:58:00,
2013-03-29 11:03:00,49.2,37.1,29.47,East,90,3.0,12.0,63,0.00,,,0.00,Weather View 32 v70,2013-03-29 15:03:00,
2013-03-29 11:08:00,49.0,36.1,29.47,SSE,157,6.0,12.0,61,0.00,,,0.00,Weather View 32 v70,2013-03-29 15:08:00,
2013-03-29 11:13:00,48.1,35.7,29.47,ESE,112,0.0,12.0,62,0.00,,,0.00,Weather View 32 v70,2013-03-29 15:13:00,
2013-03-29 11:18:00,48.3,36.3,29.47,ESE,112,6.0,12.0,63,0.00,,,0.00,Weather View 32 v70,2013-03-29 15:18:00,
2013-03-29 11:23:00,48.0,36.4,29.47,ESE,112,0.0,12.0,64,0.00,,,0.00,Weather View 32 v70,2013-03-29 15:23:00,
2013-03-29 11:28:00,48.9,36.4,29.47,NNW,337,1.0,12.0,62,0.00,,,0.00,Weather View 32 v70,2013-03-29 15:28:00,
2013-03-29 11:33:00,48.7,35.4,29.47,East,90,1.0,12.0,60,0.00,,,0.00,Weather View 32 v70,2013-03-29 15:33:00,
2013-03-29 11:38:00,49.0,36.5,29.47,SSE,157,0.0,12.0,62,0.00,,,0.00,Weather View 32 v70,2013-03-29 15:38:00,
2013-03-29 11:43:00,49.4,35.6,29.47,NNE,22,3.0,12.0,59,0.00,,,0.00,Weather View 32 v70,2013-03-29 15:43:00,
2013-03-29 11:48:00,49.1,35.8,29.47,NNW,337,3.0,12.0,60,0.00,,,0.00,Weather View 32 v70,2013-03-29 15:48:00,
2013-03-29 11:53:00,48.6,33.6,29.47,WSW,247,1.0,12.0,56,0.00,,,0.00,Weather View 32 v70,2013-03-29 15:53:00,
2013-03-29 11:58:00,48.4,35.1,29.47,SW,225,0.0,12.0,60,0.00,,,0.00,Weather View 32 v70,2013-03-29 15:58:00,
2013-03-29 12:03:00,47.7,33.6,29.47,WNW,292,4.0,12.0,58,0.00,,,0.00,Weather View 32 v70,2013-03-29 16:03:00,
2013-03-29 12:08:00,47.5,34.3,29.47,West,270,4.0,12.0,60,0.00,,,0.00,Weather View 32 v70,2013-03-29 16:08:00,
2013-03-29 12:13:00,47.4,34.2,29.47,WSW,247,2.0,12.0,60,0.00,,,0.00,Weather View 32 v70,2013-03-29 16:13:00,
2013-03-29 12:18:00,47.8,34.6,29.47,West,270,2.0,8.0,60,0.00,,,0.00,Weather View 32 v70,2013-03-29 16:18:00,
2013-03-29 12:23:00,47.9,33.8,29.47,NW,315,2.0,8.0,58,0.00,,,0.00,Weather View 32 v70,2013-03-29 16:23:00,
2013-03-29 12:28:00,48.0,34.3,29.47,WNW,292,3.0,9.0,59,0.00,,,0.00,Weather View 32 v70,2013-03-29 16:28:00,
2013-03-29 12:33:00,47.8,34.1,29.46,WNW,292,2.0,9.0,59,0.00,,,0.00,Weather View 32 v70,2013-03-29 16:33:00,
2013-03-29 12:38:00,48.0,35.2,29.46,NNW,337,7.0,9.0,61,0.00,,,0.00,Weather View 32 v70,2013-03-29 16:38:00,
2013-03-29 12:43:00,48.7,35.4,29.46,NW,315,2.0,9.0,60,0.00,,,0.00,Weather View 32 v70,2013-03-29 16:43:00,
2013-03-29 12:48:00,49.1,34.5,29.46,WNW,292,5.0,9.0,57,0.00,,,0.00,Weather View 32 v70,2013-03-29 16:48:00,
2013-03-29 12:53:00,48.7,35.4,29.46,North,360,7.0,9.0,60,0.00,,,0.00,Weather View 32 v70,2013-03-29 16:53:00,
2013-03-29 12:58:00,48.8,34.7,29.46,NW,315,5.0,9.0,58,0.00,,,0.00,Weather View 32 v70,2013-03-29 16:58:00,
2013-03-29 13:03:00,48.4,35.1,29.46,WNW,292,6.0,9.0,60,0.00,,,0.00,Weather View 32 v70,2013-03-29 17:03:00,
2013-03-29 13:08:00,48.3,35.5,29.46,NNW,337,6.0,9.0,61,0.00,,,0.00,Weather View 32 v70,2013-03-29 17:08:00,
2013-03-29 13:14:00,48.2,35.4,29.46,NW,315,6.0,9.0,61,0.00,,,0.00,Weather View 32 v70,2013-03-29 17:14:00,
2013-03-29 13:19:00,48.2,35.4,29.45,NNW,337,7.0,9.0,61,0.00,,,0.00,Weather View 32 v70,2013-03-29 17:19:00,
2013-03-29 13:24:00,48.2,34.9,29.45,NNE,22,5.0,9.0,60,0.00,,,0.00,Weather View 32 v70,2013-03-29 17:24:00,
2013-03-29 13:29:00,47.9,34.7,29.45,North,360,2.0,9.0,60,0.00,,,0.00,Weather View 32 v70,2013-03-29 17:29:00,
2013-03-29 13:34:00,47.7,34.9,29.45,NNW,337,2.0,9.0,61,0.00,,,0.00,Weather View 32 v70,2013-03-29 17:34:00,
2013-03-29 13:39:00,47.3,34.9,29.45,NNW,337,5.0,10.0,62,0.00,,,0.00,Weather View 32 v70,2013-03-29 17:39:00,
2013-03-29 13:44:00,46.6,35.4,29.45,NW,315,1.0,10.0,65,0.00,,,0.00,Weather View 32 v70,2013-03-29 17:44:00,
2013-03-29 13:49:00,46.3,35.5,29.45,NNW,337,1.0,10.0,66,0.00,,,0.00,Weather View 32 v70,2013-03-29 17:49:00,
2013-03-29 13:54:00,46.3,35.2,29.45,NNW,337,5.0,10.0,65,0.00,,,0.00,Weather View 32 v70,2013-03-29 17:54:00,
2013-03-29 13:59:00,46.2,34.7,29.44,NNW,337,0.0,10.0,64,0.00,,,0.00,Weather View 32 v70,2013-03-29 17:59:00,
2013-03-29 14:04:00,46.2,35.1,29.44,WNW,292,0.0,10.0,65,0.00,,,0.00,Weather View 32 v70,2013-03-29 18:04:00,
2013-03-29 14:09:00,46.6,35.4,29.44,WNW,292,1.0,10.0,65,0.00,,,0.00,Weather View 32 v70,2013-03-29 18:09:00,
2013-03-29 14:14:00,47.0,35.4,29.44,NNW,337,2.0,10.0,64,0.00,,,0.00,Weather View 32 v70,2013-03-29 18:14:00,
2013-03-29 14:19:00,47.8,35.8,29.43,West,270,0.0,10.0,63,0.00,,,0.00,Weather View 32 v70,2013-03-29 18:19:00,
2013-03-29 14:24:00,48.6,36.1,29.43,ENE,67,2.0,10.0,62,0.00,,,0.00,Weather View 32 v70,2013-03-29 18:24:00,
2013-03-29 14:29:00,49.0,35.7,29.43,ESE,112,2.0,10.0,60,0.00,,,0.00,Weather View 32 v70,2013-03-29 18:29:00,
2013-03-29 14:34:00,48.9,34.7,29.43,ENE,67,0.0,10.0,58,0.00,,,0.00,Weather View 32 v70,2013-03-29 18:34:00,
2013-03-29 14:39:00,49.0,34.4,29.43,ENE,67,0.0,10.0,57,0.00,,,0.00,Weather View 32 v70,2013-03-29 18:39:00,
2013-03-29 14:44:00,48.7,33.7,29.43,NNW,337,1.0,10.0,56,0.00,,,0.00,Weather View 32 v70,2013-03-29 18:44:00,
2013-03-29 14:49:00,48.6,33.6,29.43,North,360,0.0,10.0,56,0.00,,,0.00,Weather View 32 v70,2013-03-29 18:49:00,
2013-03-29 14:54:00,48.3,33.7,29.43,NNW,337,6.0,10.0,57,0.00,,,0.00,Weather View 32 v70,2013-03-29 18:54:00,
2013-03-29 14:59:00,47.4,35.8,29.43,WNW,292,6.0,10.0,64,0.00,,,0.00,Weather View 32 v70,2013-03-29 18:59:00,
2013-03-29 15:04:00,46.8,35.2,29.43,NNW,337,4.0,9.0,64,0.00,,,0.00,Weather View 32 v70,2013-03-29 19:04:00,
2013-03-29 15:09:00,46.3,35.9,29.43,NNW,337,6.0,12.0,67,0.00,,,0.00,Weather View 32 v70,2013-03-29 19:09:00,
2013-03-29 15:14:00,46.2,36.2,29.43,NW,315,1.0,12.0,68,0.00,,,0.00,Weather View 32 v70,2013-03-29 19:14:00,
2013-03-29 15:19:00,46.4,35.6,29.43,NNW,337,0.0,12.0,66,0.00,,,0.00,Weather View 32 v70,2013-03-29 19:19:00,
2013-03-29 15:24:00,47.3,36.5,29.43,WNW,292,2.0,12.0,66,0.00,,,0.00,Weather View 32 v70,2013-03-29 19:24:00,
2013-03-29 15:29:00,48.2,35.8,29.42,NNW,337,0.0,12.0,62,0.00,,,0.00,Weather View 32 v70,2013-03-29 19:29:00,
2013-03-29 15:34:00,48.9,35.6,29.42,NNW,337,5.0,12.0,60,0.00,,,0.00,Weather View 32 v70,2013-03-29 19:34:00,
2013-03-29 15:39:00,49.4,35.2,29.43,NNW,337,8.0,12.0,58,0.00,,,0.00,Weather View 32 v70,2013-03-29 19:39:00,
2013-03-29 15:44:00,48.4,34.3,29.43,NNE,22,7.0,12.0,58,0.00,,,0.00,Weather View 32 v70,2013-03-29 19:44:00,
2013-03-29 15:49:00,48.4,34.7,29.43,NNE,22,8.0,12.0,59,0.00,,,0.00,Weather View 32 v70,2013-03-29 19:49:00,
2013-03-29 15:54:00,48.6,34.5,29.43,NE,45,3.0,12.0,58,0.00,,,0.00,Weather View 32 v70,2013-03-29 19:54:00,
2013-03-29 15:59:00,49.0,34.8,29.42,NNE,22,4.0,12.0,58,0.00,,,0.00,Weather View 32 v70,2013-03-29 19:59:00,
2013-03-29 16:04:00,49.4,35.2,29.42,NNW,337,1.0,12.0,58,0.00,,,0.00,Weather View 32 v70,2013-03-29 20:04:00,
2013-03-29 16:09:00,49.7,33.7,29.42,NNW,337,8.0,12.0,54,0.00,,,0.00,Weather View 32 v70,2013-03-29 20:09:00,
2013-03-29 16:15:00,49.2,32.3,29.42,North,360,2.0,12.0,52,0.00,,,0.00,Weather View 32 v70,2013-03-29 20:15:00,
2013-03-29 16:20:00,48.7,32.8,29.42,WNW,292,6.0,12.0,54,0.00,,,0.00,Weather View 32 v70,2013-03-29 20:20:00,
2013-03-29 16:25:00,48.3,31.9,29.42,WNW,292,6.0,12.0,53,0.00,,,0.00,Weather View 32 v70,2013-03-29 20:25:00,
2013-03-29 16:30:00,48.3,31.9,29.42,NNW,337,6.0,12.0,53,0.00,,,0.00,Weather View 32 v70,2013-03-29 20:30:00,
2013-03-29 16:35:00,48.1,32.2,29.42,NW,315,9.0,12.0,54,0.00,,,0.00,Weather View 32 v70,2013-03-29 20:35:00,
2013-03-29 16:40:00,47.7,30.9,29.42,NNW,337,7.0,13.0,52,0.00,,,0.00,Weather View 32 v70,2013-03-29 20:40:00,
2013-03-29 16:45:00,47.8,31.0,29.42,NNW,337,3.0,17.0,52,0.00,,,0.00,Weather View 32 v70,2013-03-29 20:45:00,
2013-03-29 16:50:00,47.7,32.7,29.42,WNW,292,12.0,17.0,56,0.00,,,0.00,Weather View 32 v70,2013-03-29 20:50:00,
2013-03-29 16:55:00,47.2,31.8,29.42,WNW,292,9.0,17.0,55,0.00,,,0.00,Weather View 32 v70,2013-03-29 20:55:00,
2013-03-29 17:00:00,46.8,32.3,29.42,WNW,292,7.0,17.0,57,0.00,,,0.00,Weather View 32 v70,2013-03-29 21:00:00,
2013-03-29 17:05:00,46.4,29.7,29.43,West,270,7.0,17.0,52,0.00,,,0.00,Weather View 32 v70,2013-03-29 21:05:00,
2013-03-29 17:10:00,46.3,29.6,29.43,NW,315,9.0,17.0,52,0.00,,,0.00,Weather View 32 v70,2013-03-29 21:10:00,
2013-03-29 17:15:00,46.2,29.5,29.43,West,270,7.0,17.0,52,0.00,,,0.00,Weather View 32 v70,2013-03-29 21:15:00,
2013-03-29 17:20:00,46.1,29.9,29.43,WNW,292,11.0,17.0,53,0.00,,,0.00,Weather View 32 v70,2013-03-29 21:20:00,
2013-03-29 17:25:00,46.0,29.8,29.43,WNW,292,6.0,17.0,53,0.00,,,0.00,Weather View 32 v70,2013-03-29 21:25:00,
2013-03-29 17:30:00,45.9,30.6,29.43,West,270,7.0,17.0,55,0.00,,,0.00,Weather View 32 v70,2013-03-29 21:30:00,
2013-03-29 17:35:00,45.9,31.1,29.43,WNW,292,5.0,17.0,56,0.00,,,0.00,Weather View 32 v70,2013-03-29 21:35:00,
2013-03-29 17:40:00,45.8,30.5,29.43,West,270,10.0,17.0,55,0.00,,,0.00,Weather View 32 v70,2013-03-29 21:40:00,
2013-03-29 17:45:00,45.7,30.4,29.43,WNW,292,5.0,17.0,55,0.00,,,0.00,Weather View 32 v70,2013-03-29 21:45:00,
2013-03-29 17:50:00,45.6,30.8,29.43,West,270,6.0,17.0,56,0.00,,,0.00,Weather View 32 v70,2013-03-29 21:50:00,
2013-03-29 17:55:00,45.4,30.6,29.43,WNW,292,12.0,17.0,56,0.00,,,0.00,Weather View 32 v70,2013-03-29 21:55:00,
2013-03-29 18:00:00,45.4,30.2,29.43,WSW,247,3.0,17.0,55,0.00,,,0.00,Weather View 32 v70,2013-03-29 22:00:00,
2013-03-29 18:05:00,45.4,30.6,29.43,WNW,292,4.0,17.0,56,0.00,,,0.00,Weather View 32 v70,2013-03-29 22:05:00,
2013-03-29 18:10:00,45.4,31.0,29.43,West,270,4.0,17.0,57,0.00,,,0.00,Weather View 32 v70,2013-03-29 22:10:00,
2013-03-29 18:15:00,45.3,30.9,29.43,NNW,337,0.0,15.0,57,0.00,,,0.00,Weather View 32 v70,2013-03-29 22:15:00,
2013-03-29 18:20:00,45.2,30.8,29.43,WNW,292,6.0,15.0,57,0.00,,,0.00,Weather View 32 v70,2013-03-29 22:20:00,
2013-03-29 18:25:00,45.2,30.8,29.43,WNW,292,6.0,15.0,57,0.00,,,0.00,Weather View 32 v70,2013-03-29 22:25:00,
2013-03-29 18:30:00,45.1,31.2,29.43,West,270,0.0,14.0,58,0.00,,,0.00,Weather View 32 v70,2013-03-29 22:30:00,
2013-03-29 18:35:00,45.0,30.7,29.43,WNW,292,4.0,14.0,57,0.00,,,0.00,Weather View 32 v70,2013-03-29 22:35:00,
2013-03-29 18:40:00,45.0,31.1,29.43,West,270,0.0,14.0,58,0.00,,,0.00,Weather View 32 v70,2013-03-29 22:40:00,
2013-03-29 18:45:00,44.8,30.5,29.43,West,270,0.0,12.0,57,0.00,,,0.00,Weather View 32 v70,2013-03-29 22:45:00,
2013-03-29 18:50:00,44.7,30.4,29.43,West,270,0.0,12.0,57,0.00,,,0.00,Weather View 32 v70,2013-03-29 22:50:00,
2013-03-29 18:56:00,44.7,30.4,29.43,WSW,247,1.0,12.0,57,0.00,,,0.00,Weather View 32 v70,2013-03-29 22:56:00,
2013-03-29 19:01:00,44.5,30.6,29.43,WNW,292,1.0,9.0,58,0.00,,,0.00,Weather View 32 v70,2013-03-29 23:01:00,
2013-03-29 19:10:00,44.2,30.8,29.44,WSW,247,0.0,9.0,59,0.00,,,0.00,Weather View 32 v70,2013-03-29 23:10:00,
2013-03-29 19:15:00,44.0,30.6,29.44,WNW,292,0.0,9.0,59,0.00,,,0.00,Weather View 32 v70,2013-03-29 23:15:00,
2013-03-29 19:21:00,43.9,31.3,29.44,West,270,3.0,8.0,61,0.00,,,0.00,Weather View 32 v70,2013-03-29 23:21:00,
2013-03-29 19:27:00,43.7,31.1,29.44,WSW,247,0.0,8.0,61,0.00,,,0.00,Weather View 32 v70,2013-03-29 23:27:00,
2013-03-29 19:32:00,43.4,31.2,29.44,WSW,247,1.0,8.0,62,0.00,,,0.00,Weather View 32 v70,2013-03-29 23:32:00,
2013-03-29 19:37:00,43.1,30.9,29.44,WSW,247,0.0,8.0,62,0.00,,,0.00,Weather View 32 v70,2013-03-29 23:37:00,
2013-03-29 19:42:00,42.9,30.8,29.44,SSW,202,1.0,8.0,62,0.00,,,0.00,Weather View 32 v70,2013-03-29 23:42:00,
2013-03-29 19:47:00,42.9,30.8,29.44,SSW,202,1.0,7.0,62,0.00,,,0.00,Weather View 32 v70,2013-03-29 23:47:00,
2013-03-29 19:52:00,42.7,31.0,29.45,WSW,247,0.0,7.0,63,0.00,,,0.00,Weather View 32 v70,2013-03-29 23:52:00,
2013-03-29 19:57:00,42.3,31.0,29.45,WNW,292,1.0,7.0,64,0.00,,,0.00,Weather View 32 v70,2013-03-29 23:57:00,
2013-03-29 20:02:00,42.0,30.3,29.45,SW,225,0.0,7.0,63,0.00,,,0.00,Weather View 32 v70,2013-03-30 00:02:00,
2013-03-29 20:07:00,41.8,31.3,29.46,WNW,292,0.0,7.0,66,0.00,,,0.00,Weather View 32 v70,2013-03-30 00:07:00,
2013-03-29 20:12:00,41.7,31.2,29.46,WSW,247,0.0,7.0,66,0.00,,,0.00,Weather View 32 v70,2013-03-30 00:12:00,
2013-03-29 20:17:00,41.4,30.5,29.46,SSW,202,0.0,5.0,65,0.00,,,0.00,Weather View 32 v70,2013-03-30 00:17:00,
2013-03-29 20:22:00,41.2,29.9,29.46,SSW,202,0.0,5.0,64,0.00,,,0.00,Weather View 32 v70,2013-03-30 00:22:00,
2013-03-29 20:27:00,41.3,30.0,29.46,SSW,202,1.0,5.0,64,0.00,,,0.00,Weather View 32 v70,2013-03-30 00:27:00,
2013-03-29 20:32:00,41.3,30.0,29.47,SW,225,0.0,4.0,64,0.00,,,0.00,Weather View 32 v70,2013-03-30 00:32:00,
2013-03-29 20:37:00,41.3,30.4,29.47,SW,225,1.0,4.0,65,0.00,,,0.00,Weather View 32 v70,2013-03-30 00:37:00,
2013-03-29 20:42:00,41.3,30.4,29.47,SSW,202,0.0,4.0,65,0.00,,,0.00,Weather View 32 v70,2013-03-30 00:42:00,
2013-03-29 20:47:00,41.3,30.4,29.47,SSW,202,0.0,4.0,65,0.00,,,0.00,Weather View 32 v70,2013-03-30 00:47:00,
2013-03-29 20:52:00,41.3,31.2,29.47,WSW,247,0.0,4.0,67,0.00,,,0.00,Weather View 32 v70,2013-03-30 00:52:00,
2013-03-29 20:57:00,41.0,30.9,29.47,SW,225,0.0,4.0,67,0.00,,,0.00,Weather View 32 v70,2013-03-30 00:57:00,
2013-03-29 21:02:00,41.1,31.3,29.47,West,270,0.0,3.0,68,0.00,,,0.00,Weather View 32 v70,2013-03-30 01:02:00,
2013-03-29 21:07:00,41.1,31.3,29.47,SW,225,0.0,3.0,68,0.00,,,0.00,Weather View 32 v70,2013-03-30 01:07:00,
2013-03-29 21:12:00,41.2,31.4,29.47,WSW,247,1.0,3.0,68,0.00,,,0.00,Weather View 32 v70,2013-03-30 01:12:00,
2013-03-29 21:18:00,41.2,31.4,29.47,WSW,247,0.0,3.0,68,0.00,,,0.00,Weather View 32 v70,2013-03-30 01:18:00,
2013-03-29 21:23:00,41.3,31.5,29.47,WSW,247,0.0,4.0,68,0.00,,,0.00,Weather View 32 v70,2013-03-30 01:23:00,
2013-03-29 21:28:00,41.4,31.6,29.47,WSW,247,0.0,5.0,68,0.00,,,0.00,Weather View 32 v70,2013-03-30 01:28:00,
2013-03-29 21:33:00,41.7,31.5,29.47,West,270,0.0,7.0,67,0.00,,,0.00,Weather View 32 v70,2013-03-30 01:33:00,
2013-03-29 21:38:00,41.8,31.6,29.47,West,270,1.0,7.0,67,0.00,,,0.00,Weather View 32 v70,2013-03-30 01:38:00,
2013-03-29 21:43:00,41.6,31.8,29.47,WSW,247,0.0,7.0,68,0.00,,,0.00,Weather View 32 v70,2013-03-30 01:43:00,
2013-03-29 21:48:00,41.5,31.7,29.47,West,270,0.0,7.0,68,0.00,,,0.00,Weather View 32 v70,2013-03-30 01:48:00,
2013-03-29 21:53:00,41.5,31.7,29.47,WSW,247,0.0,7.0,68,0.00,,,0.00,Weather View 32 v70,2013-03-30 01:53:00,
2013-03-29 21:58:00,41.4,31.6,29.47,WSW,247,0.0,7.0,68,0.00,,,0.00,Weather View 32 v70,2013-03-30 01:58:00,
2013-03-29 22:03:00,41.3,31.9,29.47,WSW,247,2.0,7.0,69,0.00,,,0.00,Weather View 32 v70,2013-03-30 02:03:00,
2013-03-29 22:08:00,41.1,31.7,29.47,SW,225,0.0,7.0,69,0.00,,,0.00,Weather View 32 v70,2013-03-30 02:08:00,
2013-03-29 22:13:00,41.0,31.6,29.47,WSW,247,1.0,7.0,69,0.00,,,0.00,Weather View 32 v70,2013-03-30 02:13:00,
2013-03-29 22:18:00,40.8,31.4,29.47,SW,225,1.0,7.0,69,0.00,,,0.00,Weather View 32 v70,2013-03-30 02:18:00,
2013-03-29 22:23:00,40.8,31.8,29.47,SW,225,2.0,7.0,70,0.00,,,0.00,Weather View 32 v70,2013-03-30 02:23:00,
2013-03-29 22:28:00,40.6,31.6,29.47,West,270,0.0,7.0,70,0.00,,,0.00,Weather View 32 v70,2013-03-30 02:28:00,
2013-03-29 22:33:00,40.4,31.4,29.47,SW,225,0.0,7.0,70,0.00,,,0.00,Weather View 32 v70,2013-03-30 02:33:00,
2013-03-29 22:38:00,40.3,31.6,29.47,SW,225,0.0,7.0,71,0.00,,,0.00,Weather View 32 v70,2013-03-30 02:38:00,
2013-03-29 22:43:00,40.3,31.6,29.47,SSW,202,0.0,7.0,71,0.00,,,0.00,Weather View 32 v70,2013-03-30 02:43:00,
2013-03-29 22:48:00,40.1,31.4,29.47,SSW,202,0.0,6.0,71,0.00,,,0.00,Weather View 32 v70,2013-03-30 02:48:00,
2013-03-29 22:53:00,39.9,31.3,29.47,WSW,247,0.0,6.0,71,0.00,,,0.00,Weather View 32 v70,2013-03-30 02:53:00,
2013-03-29 22:58:00,39.7,31.1,29.47,SSW,202,0.0,6.0,71,0.00,,,0.00,Weather View 32 v70,2013-03-30 02:58:00,
2013-03-29 23:03:00,39.6,30.6,29.47,SSW,202,0.0,6.0,70,0.00,,,0.00,Weather View 32 v70,2013-03-30 03:03:00,
2013-03-29 23:08:00,39.4,30.1,29.47,SSW,202,1.0,6.0,69,0.00,,,0.00,Weather View 32 v70,2013-03-30 03:08:00,
2013-03-29 23:13:00,39.5,30.5,29.46,South,180,0.0,6.0,70,0.00,,,0.00,Weather View 32 v70,2013-03-30 03:13:00,
2013-03-29 23:18:00,39.4,30.4,29.47,SSW,202,0.0,6.0,70,0.00,,,0.00,Weather View 32 v70,2013-03-30 03:18:00,
2013-03-29 23:23:00,39.4,30.8,29.47,SSW,202,0.0,6.0,71,0.00,,,0.00,Weather View 32 v70,2013-03-30 03:23:00,
2013-03-29 23:28:00,39.0,31.1,29.47,SSW,202,0.0,6.0,73,0.00,,,0.00,Weather View 32 v70,2013-03-30 03:28:00,
2013-03-29 23:33:00,39.0,31.1,29.47,SSE,157,0.0,4.0,73,0.00,,,0.00,Weather View 32 v70,2013-03-30 03:33:00,
2013-03-29 23:38:00,38.9,31.0,29.47,SSE,157,0.0,4.0,73,0.00,,,0.00,Weather View 32 v70,2013-03-30 03:38:00,
2013-03-29 23:43:00,38.4,30.2,29.47,SSE,157,0.0,4.0,72,0.00,,,0.00,Weather View 32 v70,2013-03-30 03:43:00,
2013-03-29 23:48:00,38.2,31.0,29.47,SSE,157,0.0,3.0,75,0.00,,,0.00,Weather View 32 v70,2013-03-30 03:48:00,
2013-03-29 23:53:00,38.1,31.2,29.47,SSE,157,0.0,3.0,76,0.00,,,0.00,Weather View 32 v70,2013-03-30 03:53:00,
2013-03-29 23:58:00,38.0,31.7,29.46,SSE,157,1.0,3.0,78,0.00,,,0.00,Weather View 32 v70,2013-03-30 03:58:00,